www.pogodaiklimat.ru

Погода и климат >> Архив погоды >> Иран >> Abadan


ПОГОДА в Abadan

  • Прогноз погоды в Abadan
  • Монитор погоды в Abadan
  • Климат города

АРХИВ ПОГОДЫ в Abadan

Время (UTC), дата Ветер
(напр.,м/с)
 
Видим.   Явления Облачность Т
(С)
Тd
(С)
f
(%)
Тe
(С)
Тes
(С)
Комфортность P
(гПа)
Po
(гПа)
Тmin
(С)
Tmax
(С)
R
(мм)
R24
(мм)
S
(см)
12 17.11 СЗ 3 10 км ясно +26.8 +6.8 28 +26 +29 жарко 1016.5 1015.6
15 17.11 З 2 10 км ясно +20.7 +7.0 41 +22 +22 комфорт 1017.2 1016.4 +27.1
18 17.11 С 2 10 км ясно +18.3 +6.2 45 +19 +19 1018.1 1017.3
21 17.11 З 2 10 км ясно +13.9 +8.5 70 +13 +13 1018.3 1017.4
00 18.11 З 2 10 км ясно +11.6 +5.9 68 +11 +11 1018.3 1017.5
03 18.11 З 2 6000 м мгла ясно +12.2 +7.3 72 +11 +11 1018.9 1018.0 +10.9
06 18.11 В 1 6000 м мгла ясно +22.4 +7.2 37 +23 +28 комфорт 1021.1 1020.2
09 18.11 ЮЗ 4 8000 м мгла ясно +26.5 +6.8 29 +26 +32 жарко 1019.8 1019.0
12 18.11 Ю 2 10 км 4/0
[Ci sp]
+27.9 +3.6 21 +26 +29 жарко 1018.3 1017.5
15 18.11 штиль 0 10 км 4/0
[Ci fib]
+20.2 +6.5 41 +21 +21 комфорт 1018.6 1017.8 +28.4
18 18.11 штиль 0 10 км ясно +16.8 +6.3 50 +17 +17 1019.6 1018.8
21 18.11 штиль 0 10 км ясно +14.1 +9.1 72 +14 +14 1019.6 1018.9
00 19.11 штиль 0 8000 м мгла ясно +12.9 +9.4 79 +12 +12 1019.3 1018.5
03 19.11 штиль 0 7000 м мгла 8/0
[Cs]
+12.7 +8.4 75 +12 +12 1019.4 1018.6 +12.2
06 19.11 В 2 4000 м мгла 5/0
[Ci fib]
+20.0 +13.3 65 +23 +26 комфорт 1020.9 1020.1
09 19.11 ЮВ 2 8000 м мгла 9/0
[Cs]
+25.9 +11.7 41 +27 +34 жарко 1019.8 1019.0
12 19.11 В 3 8000 м мгла 6/0
[Ac trans Cc]
+27.2 +9.5 33 +28 +29 жарко 1017.9 1017.1
15 19.11 ЮВ 2 10 км 8/0
[Cs]
+22.4 +13.1 56 +25 +25 комфорт 1018.3 1017.5 +28.0
18 19.11 В 2 10 км 3/0
[Ac trans]
+19.8 +13.0 65 +22 +22 комфорт 1018.9 1018.1
21 19.11 В 3 10 км ясно +19.6 +16.0 80 +22 +22 комфорт 1018.5 1017.5
00 20.11 В 3 10 км ясно +19.2 +15.0 77 +21 +21 комфорт 1018.0 1017.2
03 20.11 В 3 7000 м мгла ясно +18.6 +14.5 77 +20 +20 1018.4 1017.6 +18.4
06 20.11 В 3 5000 м мгла 8/0
[Cs]
+22.6 +15.9 66 +27 +30 душно 1019.3 1018.4
09 20.11 ЮВ 3 10 км 1/1 1050 м
[Cu hum]
+28.2 +17.1 51 +32 +39 душно 1017.4 1016.6
12 20.11 ЮВ 3 8000 м мгла 10/6 1050 м
[Cb calv As op]
+27.7 +15.4 47 +31 +31 душно 1015.7 1014.9
15 20.11 ЮВ 2 10 км 5/0
[Ac trans]
+23.8 +16.3 63 +27 +27 жарко 1016.1 1015.3 +29.6
18 20.11 ЮВ 2 10 км 8/0
[Cs]
+22.7 +16.9 70 +27 +27 душно 1015.6 1014.8
21 20.11 Ю 1 10 км 10/5 1050 м
[Cb calv As op]
+19.4 +16.6 84 +22 +22 комфорт 1015.0 1014.2
00 21.11 В 3 7000 м дымка 10/5 1050 м
[Cb calv As op]
+22.0 +19.7 87 +28 +28 душно 1014.0 1013.2
03 21.11 В 2 6000 м дымка 10/5 1050 м
[Cb calv As op]
+22.4 +19.4 83 +28 +28 душно 1013.4 1012.6 +19.2
06 21.11 Ю 7 6000 м мгла 10/5 900 м
[Cb calv As op]
+24.4 +13.3 50 +27 +27 жарко 1014.1 1013.3
09 21.11 В 6 7000 м в посл. час ливневой дождь 10/5 900 м
[Cb calv As op]
+21.7 +17.9 79 +26 +26 душно 1014.1 1013.3
12 21.11 В 7 5000 м слабый ливневой дождь 10/6 900 м
[Cb calv As op]
+20.4 +16.8 80 +23 +23 комфорт 1012.7 1011.9 0.4
15 21.11 В 6 6000 м дымка {ливн. осадки} 9/6 900 м
[Cb calv Ac As]
+19.7 +16.3 81 +22 +22 комфорт 1012.4 1011.6 +25.4
18 21.11 ЮВ 7 10 км 9/6 900 м
[Cb calv Ac As]
+19.2 +16.0 82 +20 +20 1012.3 1011.5 0.6
21 21.11 В 7 10 км 3/3 1200 м
[Sc]
+19.1 +16.0 82 +20 +20 1011.5 1010.7
00 22.11 В 2 10 км 4/4 1200 м
[Sc]
+19.9 +16.8 82 +23 +23 комфорт 1011.0 1010.2
03 22.11 ЮЗ 3 6000 м гроза, ливневой дождь 10/8 1050 м
[Cb cap As op]
+19.0 +15.9 82 +21 +21 комфорт 1011.2 1010.4 +18.7
06 22.11 Ю 3 7000 м мгла {гроза} 6/3 1050 м
[Cu hum Ac trans]
+22.3 +16.3 69 +27 +28 душно 1011.7 1010.9 3
09 22.11 ЮЗ 3 10 км 3/3 1200 м
[Cu hum]
+25.6 +14.9 52 +28 +33 жарко 1010.9 1010.1
12 22.11 СЗ 3 10 км 5/5 900 м
[Cb calv]
+27.2 +14.6 46 +30 +31 душно 1010.0 1009.2
15 22.11 штиль 0 10 км 5/0
[Ac trans]
+23.4 +16.5 65 +28 +28 душно 1011.6 1010.7 +27.5
18 22.11 СЗ 2 10 км 1/0
[Ac trans]
+20.1 +12.8 63 +23 +23 комфорт 1013.1 1012.3
21 22.11 СЗ 4 10 км 5/0
[Ac und]
+18.6 +13.2 71 +19 +19 1013.7 1012.9
00 23.11 СЗ 4 10 км ясно +15.9 +9.3 65 +15 +15 1014.2 1013.4
03 23.11 штиль 0 10 км ясно +12.8 +9.5 80 +12 +12 1015.0 1014.2 +12.8
06 23.11 З 2 6000 м мгла ясно +17.2 +10.6 65 +18 +21 1016.9 1016.1
09 23.11 СЗ 5 10 км ясно +21.8 +7.6 40 +23 +27 комфорт 1016.2 1015.4
12 23.11 СЗ 5 10 км 4/4 1200 м
[Cu hum]
+22.9 +6.6 35 +24 +24 комфорт 1015.3 1014.5
15 23.11 З 2 10 км ясно +18.8 +6.8 46 +20 +20 1016.2 1015.4 +23.3
18 23.11 штиль 0 10 км ясно +15.0 +8.2 64 +15 +15 1017.1 1016.3
21 23.11 штиль 0 10 км ясно +12.6 +6.2 65 +12 +12 1016.5
00 24.11 штиль 0 10 км ясно +11.8 +6.7 71 +11 +11 1017.9 1017.1
03 24.11 З 1 10 км ясно +10.6 +8.2 85 +10 +10 1019.0 1018.2 +10.5
06 24.11 штиль 0 7000 м мгла 4/0
[Ac trans Ci fib]
+18.5 +8.5 52 +19 +23 1020.5 1019.7

 

Местоположение метеостанции Abadan (Иран): широта 30.37 долгота 48.25 высота над уровнем моря 6 м.

В архиве по умолчанию представлена погода в Abadan за последнюю неделю. Архивные данные за месяц целиком и за предыдущие месяцы, начиная с января 2011 года, Вы можете получить, выбрав интересующий диапазон дат из раскрывающегося списка и нажав кнопку "Ввод!".

Внимание! Время в таблицах - всемирное. Для получения местного времени необходимо прибавить поправку, которая в Abadan равна 3.5 ч.

Смотрите также архив погоды в соседних городах и на ближайших метеорологических станциях:

Погода в Basrah Airport (Ирак) (48 км)
Погода в Fao (Ирак) (50 км)
Погода в Basrah (Ирак) (50 км)
Погода в Abdaly (Кувейт) (62 км)
Погода в Bubiyan (Кувейт) (68 км)
Погода в Sabriyah (Кувейт) (79 км)
Погода в Failaka Island (Кувейт) (100 км)
Погода в Mitribah (Кувейт) (104 км)
Погода в Jal Aliyah (Кувейт) (106 км)
Погода в Ahwaz (Иран) (114 км)

Пояснения к столбцам:

Ветер - указаны скорость ветра в м/с - средняя за 10 мин, порывы в срок и между сроками (в фигурных скобках) и направление, откуда дует ветер: С - северный, СВ - северо-восточный, В - восточный, ЮВ - юго-восточный, Ю - южный, ЮЗ - юго-западный, З - западный, СЗ - северо-западный.
Видимость - горизонтальная дальность видимости в метрах или километрах. При видимости от 1 до 10 км при отсутствии осадков обычно наблюдается дымка, при ухудшении видимости до 1 км и менее - туман. В сухую погоду видимость может ухудшаться дымом, пылью или мглою.
Явления - указаны атмосферные явления, наблюдавшиеся в срок или в последний час перед сроком; фигурными скобками обозначены явления, наблюдавшиеся между сроками (за 1-3 часа до срока); квадратными скобками обозначены град или гололедные отложения с указанием их диаметра в мм.
Облачность - указаны через наклонную черту общая и нижняя облачность в баллах и высота нижней границы облаков в метрах; квадратными скобками обозначены формы облаков: Ci - перистые, Cs - перисто-слоистые, Cc - перисто-кучевые, Ac - высококучевые, As - высокослоистые, Sc - слоисто-кучевые, Ns - слоисто-дождевые, Cu - кучевые, Cb - кучево-дождевые. Подробнее классификацию облаков см. в Атласе облаков (PDF).
T - Температура воздуха - температура, измеренная на высоте 2 м над землей.
Td - Температура точки росы - температура, при понижении до которой содержащийся в воздухе водяной пар достигнет насыщения.
f - Относительная влажность воздуха - влажноcть воздуха, измеренная на высоте 2 м над землей.
Te - Эффективная температура - температура, которую ощущает одетый по сезону человек в тени. Характеристика душности погоды. При расчете учитывается влияние влажности воздуха и скорости ветра на теплоощущения человека.
Tes - Эффективная температура на солнце - температура, которую ощущает человек, с поправкой на солнечный нагрев. Характеристика знойности погоды. Зависит от высоты солнца над горизонтом, облачности и скорости ветра. Ночью, в пасмурную погоду, а также при ветре 12 м/с и более поправка равна нулю.
P - Атмосферное давление - приведенное к уровню моря атмосферное давление.
Po - Атмосферное давление - измеренное на уровне метеостанции атмосферное давление.
Tmin - Минимальная температура - минимум температуры воздуха на высоте 2 м над землей.
Tmax - Максимальная температура - максимум температуры воздуха на высоте 2 м над землей.
R - Количество осадков - Количество выпавших осадков за период времени, мм. При наведении курсора мыши на число - период времени, за который выпало указанное количество осадков.
R24 - Количество осадков - Количество выпавших осадков за 24 часа, мм.
S - Снежный покров - Высота снежного покрова, см. При наведении курсора мыши на число - состояние снежного покрова и степень покрытия местности в баллах.